User: anonymous   Login
Location: Newark
(49.4900°N, 20.6656°E)
Time: 15:34:45
(UTC+00:00)
Language:

FALCON 9 DEB - Orbit

View from above orbital plane
View from above orbital plane
View from above satellite
View from above satellite

Ground track
Ground track

The orbit data is extracted from the following two-line orbital elements,

1 46386U 20062BP  20272.56349508  .05920585  12145-4  54941-3 0  9997
2 46386  52.9879 300.3493 0018134 134.8821 225.3699 16.37306996  4678
Epoch (UTC): 28 September 2020 13:31:25
Eccentricity: 0.0018134
inclination: 52.9879°
perigee height: 161 km
apogee height: 185 km
right ascension of ascending node: 300.3493°
argument of perigee: 134.8821°
revolutions per day: 16.37306996
mean anomaly at epoch: 225.3699°
orbit number at epoch: 467

The dashed part of the orbit path shows where the satellite is in the earth's shadow,  

DLR